Location: Neuvy Saint Sepulchre
(46.5953°N, 1.8122°E)
Time: 21:09:07
(UTC+01:00)

ISS - Pass Details

Date: 19 March 2023
Orbit: 414 x 422 km, 51.6° (Epoch: 25 March)

Event Time Altitude Azimuth Distance (km) Brightness Sun altitude
Rises 20:59:55 0° 261° (W) 2,352 1.0 -20.3°
Reaches altitude 10° 21:02:03 10° 267° (W) 1,489 -0.1 -20.7°
Maximum altitude 21:05:18 48° 343° (NNW) 555 -3.0 -21.2°
Enters shadow 21:05:35 46° 1° (N) 566 -3.0 -21.2°
